Time,TemperatureF,DewpointF,PressureIn,WindDirection,WindDirectionDegrees,WindSpeedMPH,WindSpeedGustMPH,Humidity,HourlyPrecipIn,Conditions,Clouds,dailyrainin,SoftwareType,DateUTC
2013-03-04 00:22:00,18.0,-99.9,-100.00,NW,320,0.0,0.0,-999,-99.99,,,-99.99,,2013-03-04 09:22:00,
2013-03-04 01:22:00,17.0,-99.9,-100.00,ESE,111,0.0,0.0,-999,-99.99,,,-99.99,,2013-03-04 10:22:00,
2013-03-04 02:22:00,16.0,-99.9,-100.00,ESE,105,0.0,3.0,-999,-99.99,,,-99.99,,2013-03-04 11:22:00,
2013-03-04 05:22:00,16.0,-99.9,-100.00,ESE,114,0.0,0.0,-999,-99.99,,,-99.99,,2013-03-04 14:22:00,
2013-03-04 05:42:00,16.0,-99.9,-100.00,ESE,114,0.0,0.0,-999,-99.99,,,-99.99,,2013-03-04 14:42:00,
2013-03-04 05:52:00,16.0,-99.9,-100.00,ESE,114,0.0,0.0,-999,-99.99,,,-99.99,,2013-03-04 14:52:00,
2013-03-04 07:22:00,18.0,-99.9,-100.00,ESE,114,0.0,0.0,-999,-99.99,,,-99.99,,2013-03-04 16:22:00,
2013-03-04 07:32:00,18.0,-99.9,-100.00,ESE,114,0.0,0.0,-999,-99.99,,,-99.99,,2013-03-04 16:32:00,
2013-03-04 07:42:00,18.0,-99.9,-100.00,ESE,114,0.0,0.0,-999,-99.99,,,-99.99,,2013-03-04 16:42:00,
2013-03-04 07:52:00,18.0,-99.9,-100.00,ESE,114,0.0,0.0,-999,-99.99,,,-99.99,,2013-03-04 16:52:00,
2013-03-04 08:22:00,18.0,-99.9,-100.00,NNW,338,0.0,0.0,-999,-99.99,,,-99.99,,2013-03-04 17:22:00,
2013-03-04 08:32:00,18.0,-99.9,-100.00,NNW,338,0.0,0.0,-999,-99.99,,,-99.99,,2013-03-04 17:32:00,
2013-03-04 08:42:00,18.0,-99.9,-100.00,NNW,338,0.0,0.0,-999,-99.99,,,-99.99,,2013-03-04 17:42:00,
2013-03-04 08:52:00,18.0,-99.9,-100.00,NNW,338,0.0,0.0,-999,-99.99,,,-99.99,,2013-03-04 17:52:00,
2013-03-04 09:22:00,19.0,-99.9,-100.00,NNE,12,0.0,0.0,-999,-99.99,,,-99.99,,2013-03-04 18:22:00,
2013-03-04 09:33:00,19.0,-99.9,-100.00,NNE,12,0.0,0.0,-999,-99.99,,,-99.99,,2013-03-04 18:33:00,
2013-03-04 09:43:00,19.0,-99.9,-100.00,NNE,12,0.0,0.0,-999,-99.99,,,-99.99,,2013-03-04 18:43:00,
2013-03-04 09:52:00,19.0,-99.9,-100.00,NNE,12,0.0,0.0,-999,-99.99,,,-99.99,,2013-03-04 18:52:00,
2013-03-04 10:22:00,23.0,-99.9,-100.00,NNE,14,0.0,0.0,-999,-99.99,,,-99.99,,2013-03-04 19:22:00,
2013-03-04 10:32:00,23.0,-99.9,-100.00,NNE,14,0.0,0.0,-999,-99.99,,,-99.99,,2013-03-04 19:32:00,
2013-03-04 10:42:00,23.0,-99.9,-100.00,NNE,14,0.0,0.0,-999,-99.99,,,-99.99,,2013-03-04 19:42:00,
2013-03-04 10:52:00,23.0,-99.9,-100.00,NNE,14,0.0,0.0,-999,-99.99,,,-99.99,,2013-03-04 19:52:00,
2013-03-04 11:12:00,27.0,-99.9,-100.00,NNW,345,0.0,3.0,-999,-99.99,,,-99.99,,2013-03-04 20:12:00,
2013-03-04 11:22:00,27.0,-99.9,-100.00,NNW,345,0.0,3.0,-999,-99.99,,,-99.99,,2013-03-04 20:22:00,
2013-03-04 11:33:00,27.0,-99.9,-100.00,NNW,345,0.0,3.0,-999,-99.99,,,-99.99,,2013-03-04 20:33:00,
2013-03-04 11:42:00,27.0,-99.9,-100.00,NNW,345,0.0,3.0,-999,-99.99,,,-99.99,,2013-03-04 20:42:00,
2013-03-04 11:53:00,27.0,-99.9,-100.00,NNW,345,0.0,3.0,-999,-99.99,,,-99.99,,2013-03-04 20:53:00,
2013-03-04 13:22:00,35.0,-99.9,-100.00,NNW,344,0.0,3.0,-999,-99.99,,,-99.99,,2013-03-04 22:22:00,
2013-03-04 13:32:00,35.0,-99.9,-100.00,NNW,344,0.0,3.0,-999,-99.99,,,-99.99,,2013-03-04 22:32:00,
2013-03-04 13:43:00,35.0,-99.9,-100.00,NNW,344,0.0,3.0,-999,-99.99,,,-99.99,,2013-03-04 22:43:00,
2013-03-04 13:52:00,35.0,-99.9,-100.00,NNW,344,0.0,3.0,-999,-99.99,,,-99.99,,2013-03-04 22:52:00,
2013-03-04 15:22:00,37.0,-99.9,-100.00,North,5,0.0,6.0,-999,-99.99,,,-99.99,,2013-03-05 00:22:00,
2013-03-04 15:33:00,37.0,-99.9,-100.00,North,5,0.0,6.0,-999,-99.99,,,-99.99,,2013-03-05 00:33:00,
2013-03-04 15:42:00,37.0,-99.9,-100.00,North,5,0.0,6.0,-999,-99.99,,,-99.99,,2013-03-05 00:42:00,
2013-03-04 15:52:00,37.0,-99.9,-100.00,North,5,0.0,6.0,-999,-99.99,,,-99.99,,2013-03-05 00:52:00,
2013-03-04 16:22:00,37.0,-99.9,-100.00,North,7,0.0,3.0,-999,-99.99,,,-99.99,,2013-03-05 01:22:00,
2013-03-04 16:33:00,37.0,-99.9,-100.00,North,7,0.0,3.0,-999,-99.99,,,-99.99,,2013-03-05 01:33:00,
2013-03-04 16:42:00,37.0,-99.9,-100.00,North,7,0.0,3.0,-999,-99.99,,,-99.99,,2013-03-05 01:42:00,
2013-03-04 16:52:00,37.0,-99.9,-100.00,North,7,0.0,3.0,-999,-99.99,,,-99.99,,2013-03-05 01:52:00,
2013-03-04 17:22:00,36.0,-99.9,-100.00,NW,324,0.0,0.0,-999,-99.99,,,-99.99,,2013-03-05 02:22:00,
2013-03-04 17:33:00,36.0,-99.9,-100.00,NW,324,0.0,0.0,-999,-99.99,,,-99.99,,2013-03-05 02:33:00,
2013-03-04 17:42:00,36.0,-99.9,-100.00,NW,324,0.0,0.0,-999,-99.99,,,-99.99,,2013-03-05 02:42:00,
2013-03-04 17:53:00,36.0,-99.9,-100.00,NW,324,0.0,0.0,-999,-99.99,,,-99.99,,2013-03-05 02:53:00,
2013-03-04 18:12:00,34.0,-99.9,-100.00,NW,324,0.0,0.0,-999,-99.99,,,-99.99,,2013-03-05 03:12:00,
2013-03-04 18:22:00,34.0,-99.9,-100.00,NW,324,0.0,0.0,-999,-99.99,,,-99.99,,2013-03-05 03:22:00,
2013-03-04 18:32:00,34.0,-99.9,-100.00,NW,324,0.0,0.0,-999,-99.99,,,-99.99,,2013-03-05 03:32:00,
2013-03-04 18:42:00,34.0,-99.9,-100.00,NW,324,0.0,0.0,-999,-99.99,,,-99.99,,2013-03-05 03:42:00,
2013-03-04 18:52:00,34.0,-99.9,-100.00,NW,324,0.0,0.0,-999,-99.99,,,-99.99,,2013-03-05 03:52:00,
2013-03-04 21:22:00,27.0,-99.9,-100.00,NW,324,0.0,0.0,-999,-99.99,,,-99.99,,2013-03-05 06:22:00,
2013-03-04 21:32:00,27.0,-99.9,-100.00,NW,324,0.0,0.0,-999,-99.99,,,-99.99,,2013-03-05 06:32:00,
2013-03-04 21:42:00,27.0,-99.9,-100.00,NW,324,0.0,0.0,-999,-99.99,,,-99.99,,2013-03-05 06:42:00,
2013-03-04 21:52:00,27.0,-99.9,-100.00,NW,324,0.0,0.0,-999,-99.99,,,-99.99,,2013-03-05 06:52:00,
2013-03-04 22:22:00,27.0,-99.9,-100.00,NW,324,0.0,0.0,-999,-99.99,,,-99.99,,2013-03-05 07:22:00,
2013-03-04 22:32:00,27.0,-99.9,-100.00,NW,324,0.0,0.0,-999,-99.99,,,-99.99,,2013-03-05 07:32:00,
2013-03-04 22:42:00,27.0,-99.9,-100.00,NW,324,0.0,0.0,-999,-99.99,,,-99.99,,2013-03-05 07:42:00,
2013-03-04 22:52:00,27.0,-99.9,-100.00,NW,324,0.0,0.0,-999,-99.99,,,-99.99,,2013-03-05 07:52:00,